Flinterbirka — PHFQ — position and weather

sailwx.info

Track history (hours):
 
Tides and Currents Weather Stations Pressure Air Temp Water Temp Dewpoint Dewpoint Depression Visibility Wind Speed Wind Dir Waves Ship Positions

Flinterbirka

Last reported at 2014-Oct-25 19:26 UTC. Time now 2014-Oct-25 19:53 UTC.
Position N 53°60' E 007°29'.

Length 81 m; draft 5.5 m.

Type: Cargo ship. MMSI: 246525000.

Date/timePositionNaut miles runAvg speedWind from/ knotsBaromVisibWave heightAir tempDewpointWater temp
2014-Oct-25 19:26N 53°60' E 007°29'9 9.8
2014-Oct-25 18:33N 54°02' E 007°43'1010.4
2014-Oct-25 17:33N 54°01' E 008°01'1111.1
2014-Oct-25 16:33N 54°00' E 008°20'1212.3
2014-Oct-25 15:33N 53°56' E 008°40'10 9.7
2014-Oct-25 14:33N 53°51' E 008°53'9 8.5
2014-Oct-25 13:33N 53°53' E 009°07'2 1.7
2014-Oct-25 12:31N 53°54' E 009°09'29 6.6
2014-Oct-25 08:06N 54°17' E 009°39'4 7.7
2014-Oct-25 07:33N 54°20' E 009°44'6 5.6
2014-Oct-25 06:33N 54°21' E 009°54'6 6.0
2014-Oct-25 05:33N 54°22' E 010°04'3 2.8
2014-Oct-25 04:34N 54°22' E 010°09'3 3.2
2014-Oct-25 03:33N 54°24' E 010°12'9 9.5
2014-Oct-25 02:33N 54°31' E 010°23'38 9.3
2014-Oct-24 22:32N 54°32' E 011°28'12 9.8
2014-Oct-24 21:18N 54°27' E 011°47'7 9.7
2014-Oct-24 20:33N 54°27' E 011°59'74 8.9
2014-Oct-24 12:15N 54°48' E 014°02'7 9.5
2014-Oct-24 11:29N 54°49' E 014°14'9 9.3
2014-Oct-24 10:32N 54°49' E 014°30'9 9.5
2014-Oct-24 09:33N 54°49' E 014°46'10 9.8
2014-Oct-24 08:34N 54°49' E 015°03'10010.0
2014-Oct-23 22:33N 54°55' E 017°56'1010.2
2014-Oct-23 21:33N 54°55' E 018°14'1010.2
2014-Oct-23 20:34N 54°55' E 018°32'1010.0
2014-Oct-23 19:33N 54°52' E 018°48'1010.0
2014-Oct-23 18:33N 54°49' E 019°05'1010.1
2014-Oct-23 17:34N 54°45' E 019°21'1010.1
2014-Oct-23 16:33N 54°42' E 019°38'10 9.9
2014-Oct-23 15:33N 54°38' E 019°54'1 0.2
2014-Oct-23 11:33N 54°38' E 019°55'8 2.1
2014-Oct-23 07:30N 54°44' E 019°45'  
2014-Oct-19 17:32N 55°58' E 016°31'5410.8
2014-Oct-19 12:33N 55°32' E 015°08'1111.0
2014-Oct-19 11:33N 55°27' E 014°51'1110.6
2014-Oct-19 10:33N 55°21' E 014°35'1110.6
2014-Oct-19 09:29N 55°12' E 014°23'4510.3
2014-Oct-19 05:09N 55°14' E 013°05'610.8
2014-Oct-19 04:33N 55°15' E 012°53'10 9.8
2014-Oct-19 03:33N 55°19' E 012°38'1010.1
2014-Oct-19 02:34N 55°29' E 012°41'10 9.7
2014-Oct-19 01:34N 55°39' E 012°41'10 9.7
2014-Oct-19 00:33N 55°49' E 012°41'10 9.8
2014-Oct-18 23:33N 55°58' E 012°38'8 7.8
2014-Oct-18 22:34N 56°06' E 012°34'8 8.5
2014-Oct-18 21:33N 56°13' E 012°25'10 9.8
2014-Oct-18 20:33N 56°21' E 012°15'9 9.3
2014-Oct-18 19:34N 56°29' E 012°07'10 9.8
2014-Oct-18 18:33N 56°38' E 011°58'9 9.5
2014-Oct-18 17:33N 56°46' E 011°51'9 9.4
2014-Oct-18 16:33N 56°55' E 011°45'10 9.6
2014-Oct-18 15:33N 57°04' E 011°39'10 9.5
2014-Oct-18 14:33N 57°13' E 011°34'9 9.2
2014-Oct-18 13:33N 57°22' E 011°28'9 9.1
2014-Oct-18 12:34N 57°30' E 011°20'9 9.2
2014-Oct-18 11:33N 57°36' E 011°07'1010.1
2014-Oct-18 10:33N 57°43' E 010°53'1010.0
2014-Oct-18 09:34N 57°47' E 010°36'1212.3
2014-Oct-18 08:33N 57°43' E 010°14'40010.5
2014-Oct-16 18:33N 53°12' E 001°35'1110.5
2014-Oct-16 17:33N 53°05' E 001°22'  
Track history (hours):
 
Tides and Currents Weather Stations Pressure Air Temp Water Temp Dewpoint Dewpoint Depression Visibility Wind Speed Wind Dir Waves Ship Positions

Flinterbirka

Last reported at 2014-Oct-25 19:26 UTC. Time now 2014-Oct-25 19:53 UTC.
Position N 53°60' E 007°29'.

Length 81 m; draft 5.5 m.

Type: Cargo ship. MMSI: 246525000.

Date/timePositionNaut miles runAvg speedWind from/ knotsBaromVisibWave heightAir tempDewpointWater temp
2014-Oct-25 19:26N 53°60' E 007°29'9 9.8
2014-Oct-25 18:33N 54°02' E 007°43'1010.4
2014-Oct-25 17:33N 54°01' E 008°01'1111.1
2014-Oct-25 16:33N 54°00' E 008°20'1212.3
2014-Oct-25 15:33N 53°56' E 008°40'10 9.7
2014-Oct-25 14:33N 53°51' E 008°53'9 8.5
2014-Oct-25 13:33N 53°53' E 009°07'2 1.7
2014-Oct-25 12:31N 53°54' E 009°09'29 6.6
2014-Oct-25 08:06N 54°17' E 009°39'4 7.7
2014-Oct-25 07:33N 54°20' E 009°44'6 5.6
2014-Oct-25 06:33N 54°21' E 009°54'6 6.0
2014-Oct-25 05:33N 54°22' E 010°04'3 2.8
2014-Oct-25 04:34N 54°22' E 010°09'3 3.2
2014-Oct-25 03:33N 54°24' E 010°12'9 9.5
2014-Oct-25 02:33N 54°31' E 010°23'38 9.3
2014-Oct-24 22:32N 54°32' E 011°28'12 9.8
2014-Oct-24 21:18N 54°27' E 011°47'7 9.7
2014-Oct-24 20:33N 54°27' E 011°59'74 8.9
2014-Oct-24 12:15N 54°48' E 014°02'7 9.5
2014-Oct-24 11:29N 54°49' E 014°14'9 9.3
2014-Oct-24 10:32N 54°49' E 014°30'9 9.5
2014-Oct-24 09:33N 54°49' E 014°46'10 9.8
2014-Oct-24 08:34N 54°49' E 015°03'10010.0
2014-Oct-23 22:33N 54°55' E 017°56'1010.2
2014-Oct-23 21:33N 54°55' E 018°14'1010.2
2014-Oct-23 20:34N 54°55' E 018°32'1010.0
2014-Oct-23 19:33N 54°52' E 018°48'1010.0
2014-Oct-23 18:33N 54°49' E 019°05'1010.1
2014-Oct-23 17:34N 54°45' E 019°21'1010.1
2014-Oct-23 16:33N 54°42' E 019°38'10 9.9
2014-Oct-23 15:33N 54°38' E 019°54'1 0.2
2014-Oct-23 11:33N 54°38' E 019°55'8 2.1
2014-Oct-23 07:30N 54°44' E 019°45'  
2014-Oct-19 17:32N 55°58' E 016°31'5410.8
2014-Oct-19 12:33N 55°32' E 015°08'1111.0
2014-Oct-19 11:33N 55°27' E 014°51'1110.6
2014-Oct-19 10:33N 55°21' E 014°35'1110.6
2014-Oct-19 09:29N 55°12' E 014°23'4510.3
2014-Oct-19 05:09N 55°14' E 013°05'610.8
2014-Oct-19 04:33N 55°15' E 012°53'10 9.8
2014-Oct-19 03:33N 55°19' E 012°38'1010.1
2014-Oct-19 02:34N 55°29' E 012°41'10 9.7
2014-Oct-19 01:34N 55°39' E 012°41'10 9.7
2014-Oct-19 00:33N 55°49' E 012°41'10 9.8
2014-Oct-18 23:33N 55°58' E 012°38'8 7.8
2014-Oct-18 22:34N 56°06' E 012°34'8 8.5
2014-Oct-18 21:33N 56°13' E 012°25'10 9.8
2014-Oct-18 20:33N 56°21' E 012°15'9 9.3
2014-Oct-18 19:34N 56°29' E 012°07'10 9.8
2014-Oct-18 18:33N 56°38' E 011°58'9 9.5
2014-Oct-18 17:33N 56°46' E 011°51'9 9.4
2014-Oct-18 16:33N 56°55' E 011°45'10 9.6
2014-Oct-18 15:33N 57°04' E 011°39'10 9.5
2014-Oct-18 14:33N 57°13' E 011°34'9 9.2
2014-Oct-18 13:33N 57°22' E 011°28'9 9.1
2014-Oct-18 12:34N 57°30' E 011°20'9 9.2
2014-Oct-18 11:33N 57°36' E 011°07'1010.1
2014-Oct-18 10:33N 57°43' E 010°53'1010.0
2014-Oct-18 09:34N 57°47' E 010°36'1212.3
2014-Oct-18 08:33N 57°43' E 010°14'40010.5
2014-Oct-16 18:33N 53°12' E 001°35'1110.5
2014-Oct-16 17:33N 53°05' E 001°22'  

Dump ship's entire track history